Location: B�rgermoos
(47.6500°N, 9.0667°E)
Time: 06:01:25
(UTC+00:00)

SJ-6B - Pass Details

Date: 18 September 2020
Orbit: 511 x 580 km, 97.6° (Epoch: 22 October)

Event Time Altitude Azimuth Distance (km) Brightness Sun altitude
Exits shadow 19:21:18 24° 183° (S) 1,094 4.1 -19.1°
Maximum altitude 19:23:25 64° 259° (WSW) 572 3.0 -19.4°
Drops below altitude 10° 19:27:10 10° 341° (NNW) 1,753 6.0 -20.0°
Sets 19:29:18 0° 345° (NNW) 2,652 6.9 -20.3°
